• Preparing MPCs (Info)

  • MPEC 2013-Y70 : 2013 YD48

    The following Minor Planet Electronic Circular may be linked-to from your own Web pages, but must not otherwise be redistributed electronically.

    A form allowing access to any MPEC is at the bottom of this page.


    Read MPEC 2013-Y69 Read MPEC 2013-Y71


    M.P.E.C. 2013-Y70                                Issued 2013 Dec. 31, 00:09 UT
    
         The Minor Planet Electronic Circulars contain information on unusual
             minor planets and routine data on comets.  They are published
       on behalf of Commission 20 of the International Astronomical Union by the
              Minor Planet Center, Smithsonian Astrophysical Observatory,
                              Cambridge, MA 02138, U.S.A.
    
                 Prepared using the Tamkin Foundation Computer Network
    
                                  MPC@CFA.HARVARD.EDU
                URL http://www.minorplanetcenter.net/    ISSN 1523-6714
    
                                       2013 YD48
    
    Observations:
         K13Y48D* C2013 12 29.40682 05 33 35.824+11 49 12.80         19.6 wLEY070F51
         K13Y48D  C2013 12 29.42061 05 33 32.597+11 48 26.54         19.7 wLEY070F51
         K13Y48D  C2013 12 29.43452 05 33 29.325+11 47 39.46         19.8 wLEY070F51
         K13Y48D  C2013 12 29.44845 05 33 26.061+11 46 52.33         19.8 wLEY070F51
         K13Y48D KC2013 12 29.87858 05 31 56.38 +11 21 47.7          20.4 VuEY070958
         K13Y48D KC2013 12 29.88234 05 31 55.47 +11 21 34.7          19.6 VuEY070958
         K13Y48D KC2013 12 29.88622 05 31 54.60 +11 21 20.9          19.5 VuEY070958
         K13Y48D KC2013 12 29.89157 05 31 53.29 +11 21 01.9          20.0 VuEY070958
         K13Y48D KC2013 12 29.98188 05 31 31.05 +11 15 35.7          20.0 VqEY070C43
         K13Y48D KC2013 12 29.98388 05 31 30.57 +11 15 28.4          20.0 VqEY070C43
         K13Y48D KC2013 12 29.98589 05 31 30.09 +11 15 20.8          20.2 VqEY070C43
         K13Y48D  C2013 12 30.04058 05 31 17.20 +11 12 03.8          18.9 VoEY070033
         K13Y48D  C2013 12 30.04656 05 31 15.86 +11 11 44.0          18.9 VoEY070033
         K13Y48D  C2013 12 30.06303 05 31 11.91 +11 10 42.2          18.9 VoEY070033
         K13Y48D  C2013 12 30.06903 05 31 10.57 +11 10 22.5          18.9 VoEY070033
         K13Y48D KC2013 12 30.15956 05 30 53.62 +11 05 07.5          18.9 RqEY070H36
         K13Y48D KC2013 12 30.16752 05 30 51.68 +11 04 39.2          19.0 RqEY070H36
         K13Y48D KC2013 12 30.17591 05 30 49.64 +11 04 08.1          19.2 RqEY070H36
         K13Y48D KC2013 12 30.18427 05 30 47.59 +11 03 37.7          19.5 RqEY070H36
         K13Y48D |C2013 12 30.20319 05 30 41.33 +11 03 40.5          19.4 VuEY070807
         K13Y48D |C2013 12 30.20695 05 30 40.39 +11 03 26.7          19.6 VuEY070807
         K13Y48D |C2013 12 30.21070 05 30 39.45 +11 03 12.9          19.7 VuEY070807
         K13Y48D KC2013 12 30.31853 05 30 15.03 +10 55 32.4          19.4 RoEY070291
         K13Y48D KC2013 12 30.31994 05 30 14.67 +10 55 27.1          19.6 RoEY070291
         K13Y48D KC2013 12 30.32188 05 30 14.19 +10 55 20.1          19.5 RoEY070291
         K13Y48D  C2013 12 30.33969 05 30 09.65 +10 54 14.0          19.4 RoEY070926
         K13Y48D  C2013 12 30.34546 05 30 08.21 +10 53 51.6          19.6 RoEY070926
         K13Y48D  C2013 12 30.35150 05 30 06.71 +10 53 29.6          19.3 RoEY070926
         K13Y48D KC2013 12 30.77943 05 28 30.92 +10 26 10.3          20.1 VqEY070C77
         K13Y48D KC2013 12 30.78459 05 28 29.71 +10 25 50.1          19.9 VqEY070C77
         K13Y48D KC2013 12 30.79029 05 28 28.28 +10 25 27.7          19.8 VqEY070C77
         K13Y48D KC2013 12 30.79350 05 28 26.99 +10 25 11.2          19.1 RqEY070113
         K13Y48D KC2013 12 30.79675 05 28 26.07 +10 24 58.0          19.6 VqEY070C43
         K13Y48D KC2013 12 30.79877 05 28 25.59 +10 24 50.4          18.9 RqEY070113
         K13Y48D KC2013 12 30.79990 05 28 25.28 +10 24 45.8          19.7 VqEY070C43
         K13Y48D KC2013 12 30.80289 05 28 24.51 +10 24 33.8          19.7 VqEY070C43
         K13Y48D KC2013 12 30.80403 05 28 24.26 +10 24 30.5          19.3 RqEY070113
         K13Y48D  C2013 12 30.80759 05 28 23.40 +10 24 17.8          19.2 RqEY070246
         K13Y48D  C2013 12 30.80802 05 28 23.33 +10 24 15.6                qEY070246
         K13Y48D  C2013 12 30.81053 05 28 22.72 +10 24 04.8                qEY070246
         K13Y48D  C2013 12 30.81079 05 28 22.62 +10 24 04.6                qEY070246
         K13Y48D  C2013 12 30.81116 05 28 22.48 +10 24 03.9                qEY070246
         K13Y48D  C2013 12 30.81389 05 28 21.79 +10 23 54.0                qEY070246
    
    Observer details:
    033 Karl Schwarzschild Observatory, Tautenburg.  Observer B. Stecklum.  1.34-m
        f/4 Schmidt + CCD.
    113 Volkssternwarte Drebach, Schoenbrunn.  Observers G. Lehmann, M. Lehmann.
        0.5-m f/4.6 reflector + CCD.
    246 Klet Observatory-KLENOT.  Observers M. Tichy, J. Ticha, M. Honkova,
        M. Kocer.  Measurer M. Tichy.  1.06-m KLENOT Telescope + CCD.
    291 LPL/Spacewatch II.  Observer T. H. Bressi.  1.8-m f/2.7 reflector + CCD.
    807 Cerro Tololo.  Observers T. Linder, R. Holmes.  0.41-m f/11
        Ritchey-Chretien + CCD.
    926 Tenagra II Observatory.  Observers M. Schwartz, P. R. Holvorcem.  0.81-m
        f/7 Ritchey-Chretien + CCD.
    958 Observatoire de Dax.  Observers P. Dupouy, J. B. de Vanssay.  Measurer
        P. Dupouy.  0.43-m f/2.7 reflector + CCD.
    C43 Hoyerswerda.  Observer P. Lindner.  0.30-m f/6.3 Schmidt-Cassegrain + CCD.
    C77 Bernezzo Observatory.  Observer A. Mantero.  0.25-m f/4 reflector + CCD.
    F51 Pan-STARRS 1, Haleakala.  Observers N. Primak, A. Schultz. T. Goggia,
        M. Willman.  Measurer PS1 Science Consortium.  1.8-m Ritchey-Chretien
        + CCD.
    H36 Sandlot Observatory, Scranton.  Observer G. Hug.  0.56-m reflector + CCD.
    
    Orbital elements:
    2013 YD48                                                Earth MOID = 0.0043 AU
    Epoch 2013 Nov. 4.0 TT = JDT 2456600.5                  MPC
    M 318.49411              (2000.0)            P               Q
    n   0.36822944     Peri.  287.33372     -0.99585468     -0.07506088
    a   1.9277781      Node   248.38587     +0.08896858     -0.92131807
    e   0.5975662      Incl.    3.16777     -0.01892192     -0.38149559
    P   2.68           H   22.8           G   0.15           U   6
    Residuals in seconds of arc
    131229 F51  0.1+  0.1-    131230 H36  0.7-  0.0     131230 C77  0.7+  0.3-
    131229 F51  0.2+  0.0     131230 H36  0.5-  0.4+    131230 113  0.5+  0.5+
    131229 F51  0.0   0.1-    131230 H36  0.1-  0.3-    131230 C43  0.2+  0.3+
    131229 F51  0.0   0.1-    131230 H36  0.0   0.4-    131230 113  0.5-  0.0
    131229 958  0.2-  0.1+    131230 807  0.0   0.1+    131230 C43  0.3+  0.3+
    131229 958  0.5-  0.2+    131230 807  0.1-  0.1+    131230 C43  0.1+  0.1-
    131229 958  0.2+  0.0     131230 807  0.2-  0.1+    131230 113  0.5-  0.5+
    131229 958  0.4-  0.3-    131230 291  0.1-  0.2+    131230 246  0.1-  0.1-
    131229 C43  0.2+  0.5+    131230 291  0.2-  0.1+    131230 246  0.5+  0.7-
    131229 C43  0.1+  0.4+    131230 291  0.1-  0.4+    131230 246  0.9+  1.7-
    131229 C43  0.1+  0.0     131230 926  0.4-  0.2+    131230 246  0.4+  0.9-
    131230 033  0.5-  0.6-    131230 926  0.4-  0.7-    131230 246  0.2-  0.2-
    131230 033  0.6+  1.3+    131230 926  0.2-  0.1-    131230 246  0.1-  0.5+
    131230 033  0.6-  0.8-    131230 C77  0.7-  0.5+
    131230 033  0.4+  1.3+    131230 C77  0.6+  0.2+
    
    Ephemeris:
    2013 YD48                a,e,i = 1.93, 0.60, 3                   q = 0.7758
    Date    TT    R. A. (2000) Decl.     Delta      r     Elong.  Phase     V
    2013 12 01    06 10 23.6 +22 04 59   0.4208  1.3819   156.3    16.7    22.5
    ...
    2013 12 16    06 01 36.8 +19 03 04   0.2619  1.2441   172.3     6.1    20.8
    ...
    2013 12 24    05 48 38.3 +15 43 45   0.1888  1.1704   170.9     7.6    20.1
    ...
    2013 12 30    05 31 28.2 +11 15 15   0.1391  1.1156   160.6    17.1    19.7
    2013 12 31    05 27 35.1 +10 12 26   0.1313  1.1065   158.4    19.1    19.6
    2014 01 01    05 23 17.6 +09 02 08   0.1237  1.0975   156.0    21.4    19.5
    ...
    2014 01 07    04 43 58.0 -02 11 16   0.08163 1.0441   136.5    40.4    19.0
    ...
    2014 01 15    02 01 16.8 -38 29 40   0.05158 0.9758    79.9    97.2    19.8
    ...
    2014 01 30    19 58 17.7 -39 38 54   0.1342  0.8647    24.5   151.9    26.9
    
    A. U. Tomatic                (C) Copyright 2013 MPC           M.P.E.C. 2013-Y70
    

    Read MPEC 2013-Y69 Read MPEC 2013-Y71


    MPEC number:

    Enter an MPEC number in one of the following forms:

    • 1997-B01 (the full form)
    • J97B01 (the packed version of the full form)
    • B01 (the abbreviated form)